| time (UTC) | temp F | wind direction | speed MPH | gust MPH | rain 1hr in | rain 24hr in | rain mn in | humidity % | barometer mb |
| 20260902130553 | 76 | 0.0 | 1.0 | 0.00 | 0.00 | 0.00 | 1020.2 | ||
| 20260902125550 | 78 | 306 | 0.0 | 5.0 | 0.00 | 0.00 | 0.00 | 1020.1 | |
| 20260902124545 | 76 | 293 | 0.0 | 3.0 | 0.00 | 0.00 | 0.00 | 1020.3 | |
| 20260902123542 | 75 | 22 | 1.0 | 4.0 | 0.00 | 0.00 | 0.00 | 1020.3 | |
| 20260902122538 | 75 | 180 | 0.0 | 3.0 | 0.00 | 0.00 | 0.00 | 1020.4 | |
| 20260902121534 | 77 | 225 | 0.0 | 3.0 | 0.00 | 0.00 | 0.00 | 1020.4 | |
| 20260902120530 | 78 | 0 | 1.0 | 4.0 | 0.00 | 0.00 | 0.00 | 1020.4 | |
| 20260902115527 | 78 | 208 | 0.0 | 5.0 | 0.00 | 0.00 | 0.00 | 1020.4 | |
| 20260902114523 | 77 | 0 | 0.0 | 4.0 | 0.00 | 0.00 | 0.00 | 1020.6 | |
| 20260902113518 | 78 | 0 | 0.0 | 2.0 | 0.00 | 0.00 | 0.00 | 1020.7 | |
| 20260902112615 | 77 | 0.0 | 2.0 | 0.00 | 0.00 | 0.00 | 1020.8 | ||
| 20260902111611 | 75 | 0.0 | 4.0 | 0.00 | 0.00 | 0.00 | 1020.9 | ||
| 20260902110607 | 75 | 225 | 3.0 | 4.0 | 0.00 | 0.00 | 0.00 | 1020.9 | |
| 20260902105604 | 75 | 0.0 | 1.0 | 0.00 | 0.00 | 0.00 | 1021.1 | ||
| 20260902104600 | 76 | 315 | 0.0 | 3.0 | 0.00 | 0.00 | 0.00 | 1021.1 | |
| 20260902103556 | 76 | 177 | 2.0 | 5.0 | 0.00 | 0.00 | 0.00 | 1021.1 | |
| 20260902102552 | 76 | 161 | 1.0 | 4.0 | 0.00 | 0.00 | 0.00 | 1021.1 | |
| 20260902101548 | 76 | 180 | 0.0 | 2.0 | 0.00 | 0.00 | 0.00 | 1021.3 | |
| 20260902100544 | 73 | 0.0 | 0.0 | 0.00 | 0.00 | 0.00 | 1021.4 | ||
| 20260902095541 | 72 | 180 | 0.0 | 3.0 | 0.00 | 0.00 | 0.00 | 1021.5 | |
| 20260902094538 | 72 | 234 | 1.0 | 4.0 | 0.00 | 0.00 | 0.00 | 1021.6 | |
| 20260902093534 | 71 | 191 | 0.0 | 3.0 | 0.00 | 0.00 | 0.00 | 1021.7 | |
| 20260902092530 | 69 | 0.0 | 2.0 | 0.00 | 0.00 | 0.00 | 1021.7 | ||
| 20260902091526 | 67 | 0.0 | 1.0 | 0.00 | 0.00 | 0.00 | 1021.7 | ||
| 20260902090522 | 67 | 0.0 | 0.0 | 0.00 | 0.00 | 0.00 | 1021.6 | ||
| 20260902085519 | 66 | 0.0 | 1.0 | 0.00 | 0.00 | 0.00 | 1021.6 | ||
| 20260902084515 | 66 | 0.0 | 2.0 | 0.00 | 0.00 | 0.00 | 1021.5 | ||
| 20260902083611 | 64 | 0.0 | 0.0 | 0.00 | 0.00 | 0.00 | 1021.5 | ||
| 20260902082608 | 63 | 0.0 | 1.0 | 0.00 | 0.00 | 0.00 | 1021.6 | ||
| 20260902081605 | 63 | 180 | 0.0 | 3.0 | 0.00 | 0.00 | 0.00 | 1021.6 | |
| 20260902080601 | 63 | 0.0 | 0.0 | 0.00 | 0.00 | 0.00 | 1021.6 | ||
| 20260902075557 | 62 | 0.0 | 0.0 | 0.00 | 0.00 | 0.00 | 1021.5 | ||
| 20260902074554 | 62 | 0.0 | 0.0 | 0.00 | 0.00 | 0.00 | 1021.6 | ||
| 20260902073549 | 60 | 0.0 | 0.0 | 0.00 | 0.00 | 0.00 | 1021.5 | ||
| 20260902072546 | 59 | 0.0 | 0.0 | 0.00 | 0.00 | 0.00 | 1021.5 | ||
| 20260902071542 | 58 | 0.0 | 0.0 | 0.00 | 0.00 | 0.00 | 1021.5 | ||
| 20260902070538 | 57 | 0.0 | 0.0 | 0.00 | 0.00 | 0.00 | 1021.4 | ||
| 20260902065535 | 56 | 0.0 | 0.0 | 0.00 | 0.00 | 0.00 | 1021.4 | ||
| 20260902064600 | 56 | 0.0 | 0.0 | 0.00 | 0.00 | 0.00 | 1021.3 | ||
| 20260902063556 | 56 | 0.0 | 0.0 | 0.00 | 0.00 | 0.00 | 1021.3 | ||
| 20260902062553 | 55 | 0.0 | 0.0 | 0.00 | 0.00 | 0.00 | 1021.3 | ||
| 20260902061549 | 54 | 0.0 | 0.0 | 0.00 | 0.00 | 0.00 | 1021.3 | ||
| 20260902060545 | 54 | 0.0 | 0.0 | 0.00 | 0.00 | 0.00 | 1021.4 | ||
| 20260902055542 | 53 | 0.0 | 0.0 | 0.00 | 0.00 | 0.00 | 1021.4 | ||
| 20260902054538 | 52 | 0.0 | 0.0 | 0.00 | 0.00 | 0.00 | 1021.4 | ||
| 20260902053533 | 51 | 0.0 | 0.0 | 0.00 | 0.00 | 0.00 | 1021.5 | ||
| 20260902052600 | 51 | 0.0 | 0.0 | 0.00 | 0.00 | 0.00 | 1021.5 | ||
| 20260902051556 | 50 | 0.0 | 0.0 | 0.00 | 0.00 | 0.00 | 1021.6 | ||
| 20260902050552 | 49 | 0.0 | 0.0 | 0.00 | 0.00 | 0.00 | 1021.3 | ||
| 20260902045548 | 50 | 0.0 | 0.0 | 0.00 | 0.00 | 0.00 | 1021.2 | ||
| 20260902044544 | 50 | 0.0 | 0.0 | 0.00 | 0.00 | 0.00 | 1021.2 | ||
| 20260902043541 | 49 | 0.0 | 2.0 | 0.00 | 0.00 | 0.00 | 1021.3 | ||
| 20260902042537 | 50 | 0.0 | 0.0 | 0.00 | 0.00 | 0.00 | 1021.3 | ||
| 20260902041533 | 50 | 0.0 | 0.0 | 0.00 | 0.00 | 0.00 | 1021.3 | ||
| 20260902040530 | 50 | 0.0 | 0.0 | 0.00 | 0.00 | 0.00 | 1021.3 | ||
| 20260902035525 | 50 | 0.0 | 0.0 | 0.00 | 0.00 | 0.00 | 1021.3 | ||
| 20260902034522 | 50 | 0.0 | 0.0 | 0.00 | 0.00 | 0.00 | 1021.3 | ||
| 20260902033518 | 51 | 0.0 | 0.0 | 0.00 | 0.00 | 0.00 | 1021.2 | ||
| 20260902032615 | 51 | 0.0 | 0.0 | 0.00 | 0.00 | 0.00 | 1021.2 | ||
| 20260902031611 | 51 | 0.0 | 0.0 | 0.00 | 0.00 | 0.00 | 1021.2 | ||
| 20260902030607 | 50 | 0.0 | 0.0 | 0.00 | 0.00 | 0.00 | 1021.2 | ||
| 20260902025603 | 50 | 0.0 | 0.0 | 0.00 | 0.00 | 0.00 | 1021.3 | ||
| 20260902024600 | 50 | 0.0 | 0.0 | 0.00 | 0.00 | 0.00 | 1021.2 | ||
| 20260902023555 | 50 | 0.0 | 0.0 | 0.00 | 0.00 | 0.00 | 1021.2 | ||
| 20260902022552 | 50 | 0.0 | 0.0 | 0.00 | 0.00 | 0.00 | 1021.2 | ||
| 20260902021547 | 51 | 0.0 | 0.0 | 0.00 | 0.00 | 0.00 | 1021.2 | ||
| 20260902020544 | 51 | 0.0 | 0.0 | 0.00 | 0.00 | 0.00 | 1021.3 | ||
| 20260902015541 | 51 | 0.0 | 0.0 | 0.00 | 0.00 | 0.00 | 1021.3 | ||
| 20260902014536 | 51 | 0.0 | 0.0 | 0.00 | 0.00 | 0.00 | 1021.2 | ||
| 20260902013532 | 51 | 0.0 | 0.0 | 0.00 | 0.00 | 0.00 | 1021.3 | ||
| 20260902012559 | 52 | 0.0 | 0.0 | 0.00 | 0.00 | 0.00 | 1021.3 | ||
| 20260902011555 | 52 | 0.0 | 0.0 | 0.00 | 0.00 | 0.00 | 1021.3 | ||
| 20260902010551 | 52 | 0.0 | 0.0 | 0.00 | 0.00 | 0.00 | 1021.4 | ||
| 20260902005548 | 52 | 0.0 | 0.0 | 0.00 | 0.00 | 0.00 | 1021.4 | ||
| 20260902004544 | 52 | 0.0 | 0.0 | 0.00 | 0.00 | 0.00 | 1021.5 | ||
| 20260902003540 | 53 | 0.0 | 0.0 | 0.00 | 0.00 | 0.00 | 1021.5 | ||
| 20260902002537 | 53 | 0.0 | 0.0 | 0.00 | 0.00 | 0.00 | 1021.5 | ||
| 20260902001533 | 53 | 0.0 | 0.0 | 0.00 | 0.00 | 0.00 | 1021.5 | ||
| 20260902000528 | 54 | 0.0 | 0.0 | 0.00 | 0.00 | 0.00 | 1021.6 | ||
| 20260901235525 | 54 | 0.0 | 0.0 | 0.00 | 0.00 | 0.00 | 1021.7 | ||
| 20260901234522 | 54 | 0.0 | 0.0 | 0.00 | 0.00 | 0.00 | 1021.6 | ||
| 20260901233518 | 54 | 0.0 | 0.0 | 0.00 | 0.00 | 0.00 | 1021.6 | ||
| 20260901232614 | 54 | 0.0 | 0.0 | 0.00 | 0.00 | 0.00 | 1021.6 | ||
| 20260901231610 | 54 | 0.0 | 0.0 | 0.00 | 0.00 | 0.00 | 1021.5 | ||
| 20260901230607 | 55 | 0.0 | 0.0 | 0.00 | 0.00 | 0.00 | 1021.4 | ||
| 20260901225603 | 56 | 0.0 | 0.0 | 0.00 | 0.00 | 0.00 | 1021.4 | ||
| 20260901224559 | 56 | 0.0 | 0.0 | 0.00 | 0.00 | 0.00 | 1021.4 | ||
| 20260901223554 | 56 | 0.0 | 0.0 | 0.00 | 0.00 | 0.00 | 1021.4 | ||
| 20260901222551 | 56 | 0.0 | 0.0 | 0.00 | 0.00 | 0.00 | 1021.3 | ||
| 20260901221547 | 56 | 0.0 | 0.0 | 0.00 | 0.00 | 0.00 | 1021.4 | ||
| 20260901220543 | 56 | 0.0 | 0.0 | 0.00 | 0.00 | 0.00 | 1021.3 | ||
| 20260901215540 | 57 | 0.0 | 0.0 | 0.00 | 0.00 | 0.00 | 1021.4 | ||
| 20260901214536 | 57 | 0.0 | 0.0 | 0.00 | 0.00 | 0.00 | 1021.3 | ||
| 20260901213532 | 58 | 0.0 | 0.0 | 0.00 | 0.00 | 0.00 | 1021.3 | ||
| 20260901212529 | 58 | 0.0 | 2.0 | 0.00 | 0.00 | 0.00 | 1021.3 | ||
| 20260901211525 | 57 | 0.0 | 0.0 | 0.00 | 0.00 | 0.00 | 1021.2 | ||
| 20260901210521 | 58 | 0.0 | 0.0 | 0.00 | 0.00 | 0.00 | 1021.1 | ||
| 20260901205517 | 58 | 0.0 | 0.0 | 0.00 | 0.00 | 0.00 | 1021.1 | ||
| 20260901204613 | 58 | 0.0 | 0.0 | 0.00 | 0.00 | 0.00 | 1021.2 | ||
| 20260901203609 | 59 | 0.0 | 0.0 | 0.00 | 0.00 | 0.00 | 1021.2 | ||
| 20260901202606 | 59 | 0.0 | 0.0 | 0.00 | 0.00 | 0.00 | 1021.1 | ||
| 20260901201602 | 60 | 0.0 | 0.0 | 0.00 | 0.00 | 0.00 | 1021.1 | ||
| 20260901200559 | 60 | 0.0 | 0.0 | 0.00 | 0.00 | 0.00 | 1021.0 | ||
| 20260901195554 | 61 | 0.0 | 0.0 | 0.00 | 0.00 | 0.00 | 1020.9 | ||
| 20260901194550 | 61 | 0.0 | 0.0 | 0.00 | 0.00 | 0.00 | 1020.9 | ||
| 20260901193546 | 62 | 0.0 | 0.0 | 0.00 | 0.00 | 0.00 | 1020.9 | ||
| 20260901192543 | 63 | 0.0 | 0.0 | 0.00 | 0.00 | 0.00 | 1020.9 | ||
| 20260901191539 | 64 | 0.0 | 0.0 | 0.00 | 0.00 | 0.00 | 1020.8 | ||
| 20260901190535 | 65 | 0.0 | 0.0 | 0.00 | 0.00 | 0.00 | 1020.7 | ||
| 20260901185531 | 67 | 0.0 | 0.0 | 0.00 | 0.00 | 0.00 | 1020.6 | ||
| 20260901184558 | 68 | 0.0 | 1.0 | 0.00 | 0.00 | 0.00 | 1020.6 | ||
| 20260901183555 | 68 | 0.0 | 2.0 | 0.00 | 0.00 | 0.00 | 1020.5 | ||
| 20260901182550 | 68 | 0.0 | 2.0 | 0.00 | 0.00 | 0.00 | 1020.4 | ||
| 20260901181546 | 69 | 0.0 | 2.0 | 0.00 | 0.01 | 0.00 | 1020.2 | ||
| 20260901180542 | 69 | 0.0 | 1.0 | 0.00 | 0.01 | 0.00 | 1020.1 | ||
| 20260901175539 | 70 | 0.0 | 0.0 | 0.00 | 0.01 | 0.00 | 1019.8 | ||
| 20260901174535 | 71 | 0.0 | 1.0 | 0.00 | 0.01 | 0.00 | 1019.7 | ||
| 20260901173531 | 71 | 0.0 | 0.0 | 0.00 | 0.01 | 0.00 | 1019.6 | ||
| 20260901172528 | 72 | 0.0 | 2.0 | 0.00 | 0.01 | 0.00 | 1019.5 | ||
| 20260901171524 | 75 | 270 | 0.0 | 4.0 | 0.00 | 0.01 | 0.00 | 1019.6 | |
| 20260901170520 | 76 | 0.0 | 2.0 | 0.00 | 0.01 | 0.00 | 1019.5 | ||
| 20260901165516 | 77 | 0.0 | 2.0 | 0.00 | 0.01 | 0.00 | 1019.5 | ||
| 20260901164612 | 77 | 225 | 1.0 | 4.0 | 0.00 | 0.01 | 0.00 | 1019.4 | |
| 20260901162605 | 76 | 282 | 1.0 | 5.0 | 0.00 | 0.01 | 0.00 | 1019.5 | |
| 20260901161602 | 77 | 243 | 3.0 | 8.0 | 0.00 | 0.01 | 0.00 | 1019.5 | |
| 20260901160558 | 77 | 225 | 2.0 | 4.0 | 0.00 | 0.01 | 0.00 | 1019.6 | |
| 20260901155553 | 76 | 282 | 3.0 | 11.0 | 0.00 | 0.01 | 0.00 | 1019.7 | |
| 20260901153546 | 78 | 295 | 4.0 | 9.0 | 0.00 | 0.01 | 0.00 | 1019.7 | |
| 20260901152543 | 77 | 268 | 1.0 | 6.0 | 0.00 | 0.01 | 0.00 | 1019.8 | |
| 20260901151538 | 77 | 316 | 4.0 | 11.0 | 0.00 | 0.01 | 0.00 | 1019.8 | |
| 20260901150534 | 77 | 203 | 4.0 | 8.0 | 0.00 | 0.01 | 0.00 | 1019.8 | |
| 20260901145530 | 77 | 265 | 5.0 | 11.0 | 0.00 | 0.01 | 0.00 | 1019.9 | |
| 20260901144527 | 76 | 243 | 3.0 | 10.0 | 0.00 | 0.01 | 0.00 | 1019.9 | |
| 20260901143523 | 77 | 221 | 3.0 | 8.0 | 0.00 | 0.01 | 0.00 | 1020.1 | |
| 20260901142519 | 77 | 278 | 2.0 | 9.0 | 0.00 | 0.01 | 0.00 | 1020.3 | |
| 20260901141515 | 78 | 238 | 2.0 | 8.0 | 0.00 | 0.01 | 0.00 | 1020.3 | |
| 20260901140612 | 77 | 270 | 2.0 | 3.0 | 0.00 | 0.01 | 0.00 | 1020.4 | |
| 20260901135609 | 76 | 225 | 1.0 | 4.0 | 0.00 | 0.01 | 0.00 | 1020.4 | |
| 20260901134604 | 75 | 203 | 0.0 | 3.0 | 0.00 | 0.01 | 0.00 | 1020.4 | |
| 20260901133600 | 78 | 153 | 1.0 | 5.0 | 0.00 | 0.01 | 0.00 | 1020.4 | |
| 20260901132557 | 73 | 0.0 | 0.0 | 0.00 | 0.01 | 0.00 | 1020.5 | ||
| 20260901131554 | 74 | 0.0 | 2.0 | 0.00 | 0.01 | 0.00 | 1020.6 |